Regional Weather Roundup
Issued by NWS

Home | Current Version | Previous Version | Graphics & Text | Print | Product List | Glossary On
Versions: 1 2 3 4 5 6 7 8 9 10 11 12 13 14 15 16 17 18 19 20 21 22 23 24 25 26 27 28 29 30 31 32 33 34 35 36 37 38 39 40 41 42 43 44 45 46 47 48 49 50
000
ASUS45 KBOU 010510
RWRCO

WEATHER ROUNDUP FOR COLORADO
NATIONAL WEATHER SERVICE PUEBLO CO
1100 PM MDT FRI JUL 31 2015

NOTE: "FAIR" INDICATES FEW OR NO CLOUDS BELOW 12000 FEET WITH NO
SIGNIFICANT WEATHER AND/OR OBSTRUCTIONS TO VISIBILITY.

COZ001>005-013-030-031-010600-
...NORTHWEST COLORADO...

CITY           SKY/WX    TMP DP  RH WIND       PRES   REMARKS
CRAIG          PTCLDY    59  34  39 SE7       30.25R
HAYDEN         PTCLDY    64  30  27 E3        30.28R
MEEKER         CLEAR     60  36  40 E5        30.28R
MOUNT WERNER   NOT AVBL
STEAMBOAT SPGS FAIR      62  38  41 CALM      30.30S
WALDEN         FAIR      55  39  54 E6        30.41F
$$

COZ006>008-011-010600-
...WEST CENTRAL VALLEYS...

CITY           SKY/WX    TMP DP  RH WIND       PRES   REMARKS
GRAND JUNCTION CLEAR     77  44  30 SE12      30.15R
MONTROSE       MOCLDY    73  48  41 SE7       30.27S
EAGLE          PTCLDY    70  41  35 E5        30.31S
RIFLE          CLEAR     73  44  35 E3        30.21R
DELTA          NOT AVBL
NUCLA          FAIR      72  45  37 E7        30.33S
$$

COZ017>023-064>068-010600-
...SOUTHWEST COLORADO...

CITY           SKY/WX    TMP DP  RH WIND       PRES   REMARKS
DURANGO        CLOUDY    64  53  67 N3        30.39R
CORTEZ         MOCLDY    64  61  90 CALM      30.31S
PAGOSA SPRINGS CLOUDY    61  54  77 CALM      30.47R
TELLURIDE      CLOUDY    55  52  88 SE5       30.56F
WOLF CREEK PAS NOT AVBL
$$

COZ009-010-012-014-032>034-037-058>063-010600-
...CENTRAL COLORADO...

CITY           SKY/WX    TMP DP  RH WIND       PRES   REMARKS
ASPEN          PTCLDY    58  43  57 SW10      30.40R
BUENA VISTA    FAIR      55  49  79 W6        30.50R
COPPER MTN     PTCLDY    54  37  54 S20       30.76S
BERTHOUD PASS  FAIR      43  34  70 SE10G17   30.80F
COTTONWOOD PAS PTCLDY    59  45  58 CALM      30.62S
GUNNISON       PTCLDY    63  46  55 N6        30.48S
KREMMLING      PTCLDY    61  43  51 CALM      30.39R
LEADVILLE      PTCLDY    50  43  77 SE3       30.60S
MONARCH PASS   PTCLDY    50  37  62 SE3       30.87S
SALIDA         FAIR      61  49  64 W8        30.54S
NIWOT RIDGE    NOT AVBL
SUNLIGHT       PTCLDY    59  39  47 SW3       30.67F
WILKERSON PASS MOCLDY    46  43  87 SW6       30.74S
$$

COZ069>075-010600-
...SAN LUIS VALLEY/SANGRE DE CRISTO MOUNTAINS...

CITY           SKY/WX    TMP DP  RH WIND       PRES   REMARKS
ALAMOSA        CLOUDY    59  51  75 NE5       30.45S
LA VETA PASS   CLOUDY    50  43  76 MISG      30.65S
SAGUACHE       MOCLDY    55  52  88 NE8       30.49S
$$

COZ035-036-038>040-010600-
...NORTHERN COLORADO FRONT RANGE...

CITY           SKY/WX    TMP DP  RH WIND       PRES   REMARKS
DENVER INTL AP PTCLDY    70  51  51 S13       30.26S
DMNS CITY PARK NOT AVBL
AURORA         PTCLDY    67  52  58 S8        30.29S
FRONT RANGE AP NOT AVBL
ERIE MUNI ARPT FAIR      75  52  44 S7        30.23S
BOULDER MUN AP FAIR      72  50  46 SW5       30.23F
CENTENNIAL     PTCLDY    67  51  56 S9        30.30R
BROOMFIELD     NOT AVBL
LOVELAND       CLEAR     73  52  46 SE6       30.23R
LONGMONT       FAIR      68  55  62 CALM      30.24S
$$

COZ041-046-047-076>085-087-088-010600-
...PIKES PEAK/PALMER DIVIDE AND SOUTHERN FOOTHILLS...

CITY           SKY/WX    TMP DP  RH WIND       PRES   REMARKS
COLO. SPRINGS  MOCLDY    66  53  63 NE6       30.36S
A. F. ACADEMY  PTCLDY    64  51  62 N5        30.37S
ELLICOTT       FAIR     N/A N/A N/A CALM      30.35F
FALCON         FAIR      63  51  65 SW6       30.41F
FORT CARSON    MOCLDY    68  52  57 SW7       30.31F
LIMON          CLEAR     61  53  75 SE5       30.30S
MONUMENT HILL  CLEAR     59  50  72 S9        30.40S
TRINIDAD       CLOUDY    71  54  54 NW16      30.31R
$$

COZ042>045-048>051-090-091-010600-
...NORTHEAST COLORADO...

CITY           SKY/WX    TMP DP  RH WIND       PRES   REMARKS
GREELEY ARPT   CLEAR     68  54  60 SE7       30.21S
AKRON          CLEAR     71  55  56 S12       30.23S
BURLINGTON     CLEAR     66  57  72 S10       30.23F
WRAY           FAIR      76  56  51 S12G17    30.17F
STERLING       FAIR      68  54  60 CALM      30.17S
HOLYOKE        NOT AVBL
FORT MORGAN    FAIR      71  53  51 SE7       30.22S
$$

COZ086-089-092>099-010600-
...SOUTHEAST COLORADO...

CITY           SKY/WX    TMP DP  RH WIND       PRES   REMARKS
PUEBLO         CLOUDY    71  57  61 NW3       30.25S
LA JUNTA       MOCLDY    74  61  63 E8        30.21S
LAMAR          PTCLDY    71  61  70 SE10      30.18S
SPRINGFIELD      N/A     70  65  84 S10       30.24S
$$



USA.gov is the U.S. government's official web portal to all federal, state and local government web resources and services.